Weather History for Kelso-Longview, WA

Change the Weather History Date:

Tuesday, November 12, 2013

  Actual Average Record
Temperature  
Mean Temperature 52 °F -  
Max Temperature 57 °F 51 °F 59 °F (2008)
Min Temperature 46 °F 39 °F 26 °F (2000)
Degree Days  
Heating Degree Days 14    
Growing Degree Days 2 (Base 50)    
Moisture  
Dew Point 46 °F    
Average Humidity 82    
Maximum Humidity 93    
Minimum Humidity 58    
Precipitation  
Precipitation 0.08 in - - ()
Sea Level Pressure  
Sea Level Pressure 30.29 in    
Wind  
Wind Speed 5 mph (SSE)    
Max Wind Speed 12 mph    
Max Gust Speed 20 mph    
Visibility 10 miles    
Events      
Averages and records for this station are not official NWS values.
T = Trace of Precipitation, MM = Missing Value Source: NWS Daily Summary

Daily Weather History Graph

Daily Weather History Graph

Search for Another Location

Airport:

Trip Planner

Search our weather history database for the weather conditions in past years. The results will help you decide how hot, cold, wet, or windy it might be!

Date:

Astronomy

Nov. 12, 2013 Rise Set
Actual Time 7:08 AM PST 4:42 PM PST
Civil Twilight 6:36 AM PST 5:14 PM PST
Nautical Twilight 6:00 AM PST 5:50 PM PST
Astronomical Twilight 5:24 AM PST 6:26 PM PST
Moon 2:13 PM PST (11/12) 1:48 AM PST (11/12)
Length of Visible Light 10h 38m
Length of Day
9h 33m
Waxing Gibbous, 77% of the Moon is Illuminated
Nov 12
Waxing Gibbous
Nov 17
Full
Nov 25
Last Quarter
Dec 2
New
Dec 9
First Quarter

Hourly Weather History & Observations

Time (PST) Temp. Dew Point Humidity Pressure Visibility Wind Dir Wind Speed Gust Speed Precip Events Conditions
12:15 AM 46.4 °F 41.0 °F 81% 30.10 in 10.0 mi North - - N/A   Clear
12:35 AM 46.4 °F 42.8 °F 87% 30.09 in 10.0 mi North - - N/A   Clear
12:55 AM 46.4 °F 42.8 °F 87% 30.10 in 10.0 mi North - - N/A   Clear
1:15 AM 48.2 °F 42.8 °F 82% 30.12 in 10.0 mi North - - N/A   Clear
1:35 AM 53.6 °F 39.2 °F 58% 30.12 in 10.0 mi North - - N/A   Clear
1:55 AM 53.6 °F 39.2 °F 58% 30.12 in 10.0 mi North - - N/A   Mostly Cloudy
2:15 AM 53.6 °F 39.2 °F 58% 30.13 in 10.0 mi North - - N/A   Overcast
2:35 AM 53.6 °F 41.0 °F 62% 30.13 in 10.0 mi North - - N/A   Overcast
2:55 AM 51.8 °F 41.0 °F 67% 30.15 in 10.0 mi North - - N/A   Overcast
3:15 AM 51.8 °F 42.8 °F 71% 30.15 in 10.0 mi North - - N/A   Overcast
3:35 AM 50.0 °F 42.8 °F 76% 30.15 in 10.0 mi North - - 0.01 in   Overcast
3:55 AM 50.0 °F 42.8 °F 76% 30.14 in 10.0 mi North - - 0.01 in   Overcast
4:15 AM 48.2 °F 42.8 °F 82% 30.15 in 10.0 mi North - - 0.02 in   Overcast
4:35 AM 48.2 °F 44.6 °F 87% 30.15 in 9.0 mi North - - 0.03 in   Overcast
4:55 AM 48.2 °F 44.6 °F 87% 30.15 in 10.0 mi North - - 0.04 in   Overcast
5:15 AM 48.2 °F 44.6 °F 87% 30.17 in 10.0 mi North - - 0.01 in   Overcast
5:35 AM 48.2 °F 44.6 °F 87% 30.17 in 10.0 mi North - - 0.02 in   Overcast
5:55 AM 48.2 °F 44.6 °F 87% 30.17 in 10.0 mi North - - 0.02 in   Overcast
6:15 AM 48.2 °F 44.6 °F 87% 30.18 in 10.0 mi North - - 0.01 in   Overcast
6:35 AM 48.2 °F 44.6 °F 87% 30.20 in 10.0 mi North - - 0.01 in   Overcast
6:55 AM 48.2 °F 44.6 °F 87% 30.21 in 10.0 mi North - - 0.01 in   Overcast
7:15 AM 48.2 °F 44.6 °F 87% 30.21 in 10.0 mi North - - N/A   Overcast
7:35 AM 48.2 °F 44.6 °F 87% 30.22 in 10.0 mi North - - N/A   Overcast
7:55 AM 50.0 °F 46.4 °F 87% 30.23 in 9.0 mi North - - N/A   Overcast
8:15 AM 50.0 °F 46.4 °F 87% 30.24 in 8.0 mi North - - N/A   Overcast
8:35 AM 50.0 °F 46.4 °F 87% 30.25 in 10.0 mi North - - N/A   Overcast
8:55 AM 51.8 °F 46.4 °F 82% 30.26 in 10.0 mi SSE 11.5 mph 19.6 mph N/A   Mostly Cloudy
9:15 AM 51.8 °F 46.4 °F 82% 30.27 in 10.0 mi North - - N/A   Overcast
9:35 AM 51.8 °F 46.4 °F 82% 30.28 in 10.0 mi North - - N/A   Overcast
9:55 AM 53.6 °F 48.2 °F 82% 30.30 in 10.0 mi North - - N/A   Overcast
10:15 AM 53.6 °F 48.2 °F 82% 30.31 in 10.0 mi North - - N/A   Overcast
10:35 AM 53.6 °F 48.2 °F 82% 30.32 in 10.0 mi North - - N/A   Overcast
10:55 AM 53.6 °F 48.2 °F 82% 30.33 in 10.0 mi North - - N/A   Overcast
11:15 AM 53.6 °F 48.2 °F 82% 30.32 in 10.0 mi North - - N/A   Overcast
11:35 AM 53.6 °F 48.2 °F 82% 30.32 in 10.0 mi North - - N/A   Overcast
11:55 AM 53.6 °F 48.2 °F 82% 30.33 in 10.0 mi North - - N/A   Overcast
12:15 PM 53.6 °F 48.2 °F 82% 30.33 in 10.0 mi North - - N/A   Overcast
12:35 PM 53.6 °F 48.2 °F 82% 30.33 in 10.0 mi North - - N/A   Overcast
12:55 PM 53.6 °F 48.2 °F 82% 30.33 in 10.0 mi North - - N/A   Overcast
1:15 PM 53.6 °F 48.2 °F 82% 30.33 in 10.0 mi South 9.2 mph - N/A   Overcast
1:35 PM 53.6 °F 48.2 °F 82% 30.34 in 10.0 mi North - - N/A   Overcast
1:55 PM 55.4 °F 48.2 °F 77% 30.33 in 10.0 mi North - - N/A   Overcast
2:15 PM 55.4 °F 48.2 °F 77% 30.34 in 10.0 mi North - - N/A   Overcast
2:35 PM 55.4 °F 48.2 °F 77% 30.34 in 10.0 mi North - - N/A   Overcast
2:55 PM 55.4 °F 48.2 °F 77% 30.34 in 10.0 mi North - - N/A   Overcast
3:15 PM 57.2 °F 48.2 °F 72% 30.35 in 10.0 mi North - - N/A   Overcast
3:35 PM 57.2 °F 50.0 °F 77% 30.35 in 10.0 mi SSE 8.1 mph - N/A   Overcast
3:55 PM 55.4 °F 48.2 °F 77% 30.36 in 10.0 mi SSE 5.8 mph - N/A   Scattered Clouds
4:15 PM 55.4 °F 48.2 °F 77% 30.36 in 10.0 mi SSE 4.6 mph - N/A   Mostly Cloudy
4:35 PM 53.6 °F 48.2 °F 82% 30.36 in 10.0 mi South 4.6 mph - N/A   Mostly Cloudy
4:55 PM 55.4 °F 48.2 °F 77% 30.37 in 10.0 mi SSE 3.5 mph - N/A   Overcast
5:15 PM 53.6 °F 48.2 °F 82% 30.37 in 10.0 mi Calm Calm - N/A   Overcast
5:35 PM 53.6 °F 48.2 °F 82% 30.37 in 10.0 mi South 4.6 mph - N/A   Mostly Cloudy
5:55 PM 53.6 °F 48.2 °F 82% 30.37 in 10.0 mi Calm Calm - N/A   Mostly Cloudy
6:15 PM 51.8 °F 48.2 °F 88% 30.38 in 10.0 mi Calm Calm - N/A   Overcast
6:35 PM 51.8 °F 48.2 °F 88% 30.38 in 10.0 mi Calm Calm - N/A   Overcast
6:55 PM 53.6 °F 48.2 °F 82% 30.39 in 10.0 mi ESE 3.5 mph - N/A   Overcast
7:15 PM 53.6 °F 50.0 °F 88% 30.39 in 10.0 mi SE 4.6 mph - N/A   Mostly Cloudy
7:35 PM 55.4 °F 50.0 °F 82% 30.40 in 10.0 mi SE 4.6 mph - N/A   Overcast
7:55 PM 53.6 °F 50.0 °F 88% 30.40 in 10.0 mi SSE 4.6 mph - N/A   Overcast
8:15 PM 53.6 °F 48.2 °F 82% 30.40 in 10.0 mi SSE 5.8 mph - N/A   Mostly Cloudy
8:35 PM 53.6 °F 48.2 °F 82% 30.40 in 10.0 mi Calm Calm - N/A   Mostly Cloudy
8:55 PM 53.6 °F 48.2 °F 82% 30.41 in 10.0 mi North - - N/A   Mostly Cloudy
9:15 PM 51.8 °F 46.4 °F 82% 30.42 in 10.0 mi Calm Calm - N/A   Scattered Clouds
9:35 PM 50.0 °F 46.4 °F 87% 30.42 in 10.0 mi ESE 3.5 mph - N/A   Clear
9:55 PM 46.4 °F 42.8 °F 87% 30.43 in 5.0 mi Calm Calm - N/A   Partly Cloudy
10:15 PM 46.4 °F 44.6 °F 93% 30.43 in 6.0 mi Calm Calm - N/A   Mostly Cloudy
10:35 PM 46.4 °F 44.6 °F 93% 30.44 in 7.0 mi Calm Calm - N/A   Overcast
10:55 PM 48.2 °F 46.4 °F 93% 30.44 in 10.0 mi Calm Calm - N/A   Overcast
11:15 PM 48.2 °F 46.4 °F 93% 30.44 in 9.0 mi Calm Calm - N/A   Overcast
11:35 PM 48.2 °F 46.4 °F 93% 30.45 in 9.0 mi Calm Calm - N/A   Overcast
11:55 PM 48.2 °F 44.6 °F 87% 30.45 in 5.0 mi Calm Calm - N/A   Scattered Clouds